COSMOS 2330

导读

COSMOS 2330是苏联(CIS,即独立国家联合体)于1996年2月19日发射的一颗人造卫星,属于著名的“宇宙”(COSMOS)卫星系列。该系列是世界上规模最大的卫星家族,多数为军用卫星,涵盖侦察、通信、导航等多种用途,也包含部分科学试验卫星。作为冷战后独联体时期发射的成员,COSMOS 2330延续了系列任务属性,其具体任务细节未完全公开,是苏联航天遗产在独立国家联合体时期的延续产物。

Basic Information
目录编号:
23792
目录名称:
COSMOS 2330
国际标识:
1996-009F
轨道中心:
EARTH
卫星名称:
COSMOS 2330
卫星全名:
--
卫星状态:
在轨 (已飞行11161 天)
发射日期:
1996-02-19 UTC
国别 :
俄罗斯(独联体) (CIS)
星等 :
--
Orbit Information
数据来源 国际轨道数据 AOE轨道数据
星历时间 2026-09-09T21:22:52+0800
20小时前
查看轨道信息
2026-09-10T00:00:00+0800
18小时前
查看轨道信息
半长轴 7797.044km 7797.03km
偏心率 0.0010454 0.0010169
轨道倾角 82.578° 82.580°
近地点辐角 244.625° 249.949°
升交点赤经 290.229° 290.158°
平近点角 115.376° 245.151°
近地点 1410.755km 1410.964km
远地点 1427.059km 1426.822km
周期 114.197分钟 114.197分钟
每日圈数 12.60979 12.609824
Detailed Information
使用方式:
暂无
2D Orbit Map
3D Orbit Map
Orbit Altitude Analysis Chart
Orbit Inclination Analysis Chart
Orbit Comprehensive Analysis Chart
View Comprehensive Chart
Conjunction Data List
Event ID Objects TCA Miss Dist (km) Collision Risk Probability Collision Risk Index (CRI) Action
CDM_260912-223102-379203-804321
2026-09-12T
22:31:51+0000
1.905 km
极远距离
2.856691E-6 低风险 0.44
Miss Distance Evolution Trend with All Objects
Collision Probability Evolution Trend with All Objects